Regional Weather Roundup
Issued by NWS

Home | Current Version | Previous Version | Graphics & Text | Print | Product List | Glossary On
Versions: 1 2 3 4 5 6 7 8 9 10 11 12 13 14 15 16 17 18 19 20 21 22 23 24 25 26 27 28 29 30 31 32 33 34 35 36 37 38 39 40 41 42 43 44 45 46 47 48 49 50
000
ASUS43 KLOT 301710
RWRIL

ILLINOIS REGIONAL WEATHER ROUNDUP
NATIONAL WEATHER SERVICE CHICAGO/ROMEOVILLE IL
1200 PM CDT SAT AUG 30 2014

NOTE: "FAIR" INDICATES FEW OR NO CLOUDS BELOW 12,000 FEET WITH NO
SIGNIFICANT WEATHER AND/OR OBSTRUCTIONS TO VISIBILITY.

* THESE STATIONS ARE NOT UNDER NWS QUALITY CONTROL. THEY ALSO MAY NOT
  REPORT WEATHER SUCH AS PRECIPITATION OR FOG.

ILZ001-002-007-009-015-016-024-301800-
NORTHWEST ILLINOIS

CITY           SKY/WX    TMP DP  RH WIND       PRES   REMARKS
MOLINE         CLOUDY    79  68  69 W8        29.87S HX  81
STERLING*      CLOUDY    79  68  69 W15G22    29.87S HX  81
SAVANNA*       PTSUNNY   77  66  68 SW10      29.85S
$$

ILZ003-004-008-010-011-017-018-301800-
NORTH CENTRAL ILLINOIS

CITY           SKY/WX    TMP DP  RH WIND       PRES   REMARKS
ROCKFORD       LGT RAIN  74  66  76 SW12      29.86R
FREEPORT*      CLOUDY    73  68  86 SW12G17   29.87R
ROCHELLE*      PTSUNNY   75  66  74 SW16G22   29.87R
DE KALB*       PTSUNNY   75  66  74 SW20G25   29.87S
PERU*          MOSUNNY   79  69  71 SW13      29.89S HX  82
$$

ILZ005-006-012>014-019>023-301800-
NORTHEAST ILLINOIS

CITY           SKY/WX    TMP DP  RH WIND       PRES   REMARKS
CHICAGO-OHARE  PTSUNNY   79  66  64 SW18G26   29.85F HX  81
CHICAGO-MIDWAY PTSUNNY   81  70  69 SW20G26   29.86F HX  84
AURORA         PTSUNNY   78  68  71 SW18G26   29.87R HX  80
LANSING*         N/A    N/A N/A N/A MISG        N/A
JOLIET*        MOSUNNY   80  67  65 SW13G18   29.89S HX  82
WAUKEGAN       PTSUNNY   79  68  69 S21       29.82F HX  81
DUPAGE AIRPORT PTSUNNY   79  68  69 SW23G30   29.86S HX  81
KANKAKEE*      CLOUDY    78  72  81 SW14      29.91F HX  80
WHEELING       CLOUDY    79  68  69 SW13G21   29.85F HX  81
MORRIS*        PTSUNNY   80  71  74 SW15G22   29.88S HX  83
ROMEOVILLE*    CLOUDY    79  68  68 SW12G23   29.87F HX  82
NORTHERLY ISL    N/A     79  66  64 S10         N/A  HX  81
$$

LMZ740>746-301800-
SOUTHERN LAKE MICHIGAN

STATION/POSITION SKY/WX   TEMP    WIND        PRES    VSBY  WAVE
                          AIR SEA DIR/SP/G                  HT/PER
                          (F)     (DEG/KT/KT) (MB)    (MI)  (FT/S)
SOUTHERN BUOY              72 69  190/ 16/ 19 1009.9F         3/ 4
WAUKEGAN HARBOR            76     210/ 21/ 26   N/A
HARRISON CRIB              77     200/ 26/ 32   N/A
BURNHAM HARBOR             79     180/ 14/ 16   N/A
CALUMET HARBOR             79     190/ 13/ 19 1010.3S
MICHIGAN CITY              77     180/ 16/ 21   N/A
MICHIGAN CITY 6N           77 72  210/ 16/ 21   N/A           2/ 3
ST. JOSEPH                 74 71  200/ 12/ 16   N/A           2/ 4
$$

ILZ025>027-034>036-040-047-049-050-058-095>099-301800-
WEST-CENTRAL ILLINOIS

CITY           SKY/WX    TMP DP  RH WIND       PRES   REMARKS
QUINCY         PTSUNNY   80  70  71 SW9       29.92S HX  83
GALESBURG*     MOSUNNY   81  70  68 SW8       29.91R HX  85
MACOMB*        CLOUDY    78  70  76 SW6       29.93S HX  80
JACKSONVILLE*  MOSUNNY   83  73  70 S8        29.94S HX  89
PITTSFIELD*    PTSUNNY   83  71  66 S6        29.93F HX  88
$$

ILZ028>032-037-038-041>044-048-051>054-059>061-301800-
CENTRAL ILLINOIS

CITY           SKY/WX    TMP DP  RH WIND       PRES   REMARKS
PONTIAC        MOSUNNY   81  72  74 SW9G17    29.91S HX  84
DECATUR        PTSUNNY   82  71  69 S16G24    29.95F HX  86
PEORIA         PTSUNNY   81  69  67 SW12      29.91S HX  84
LACON*         PTSUNNY   77  68  72 SW12      29.89S
LINCOLN*       PTSUNNY   83  70  66 SW7       29.89F HX  87
SPRINGFIELD    MOSUNNY   81  71  71 S9G18     29.93F HX  85
TAYLORVILLE    MOSUNNY   79  72  78 S13G20    29.95F HX  82
$$

ILZ033-039-045-046-055>057-062-063-301800-
EAST-CENTRAL ILLINOIS

CITY           SKY/WX    TMP DP  RH WIND       PRES   REMARKS
CHAMPAIGN      PTSUNNY   80  72  76 S16       29.96F HX  84
DANVILLE*      RAIN      78  71  81 S14       29.94F
RANTOUL*       PTSUNNY   82  71  68 S13       29.96S HX  86
MATTOON        PTSUNNY   78  70  76 SW10G26   29.99S HX  80
PARIS*         PTSUNNY   80  72  75 S17       29.99F HX  84
$$

ILZ079-100>102-301800-
SOUTHWEST ILLINOIS

CITY           SKY/WX    TMP DP  RH WIND       PRES   REMARKS
ALTON          PTSUNNY   81  72  74 S12G17    29.97  HX  84
BELLEVILLE     CLOUDY    76  73  90 VRB3      29.98R
CAHOKIA*       LGT RAIN  77  72  84 SW9       29.98R
SPARTA*        CLOUDY    76  70  81 SW8       30.00R
$$

ILZ064>066-069>071-074>076-080>082-084>086-088>090-092>094-301800-
SOUTH-CENTRAL ILLINOIS

CITY           SKY/WX    TMP DP  RH WIND       PRES   REMARKS
CARBONDALE     CLOUDY    76  73  91 SE6       30.00F
EFFINGHAM*     RAIN      78  67  67 S9        30.00F HX  80
MARION         CLOUDY    75  72  88 S5        30.01F
MT. VERNON     CLOUDY    75  68  78 SW10      30.01F
CENTRALIA*     CLOUDY    77  70  78 SW8       30.00S
SALEM*         CLOUDY    79  73  84 SW9       30.00F HX  82
METROPOLIS*    TSTM      77  75  92 SW7       30.05R
$$

ILZ067-068-072-073-078-083-087-091-301800-
SOUTHEAST ILLINOIS

CITY           SKY/WX    TMP DP  RH WIND       PRES   REMARKS
LAWRENCEVILLE  CLOUDY    79  32  18 SW7       30.02F
FLORA*         CLOUDY    77  70  79 SW10G17   30.01F
FAIRFIELD*     CLOUDY    77  73  88 S3        30.01F
HARRISBURG*    RAIN      75  74  96 S6        30.04R
ROBINSON*      LGT RAIN  73  72  95 SW8       30.02F
CARMI*         CLOUDY    79  74  84 S3        30.02F HX  82
$$

ABBREVIATIONS USED IN REMARKS
   TC - TEMPERATURE IN CELSIUS
  WCI - WIND CHILL INDEX
   HX - HEAT INDEX
  VSB - VISIBILITY
$$




USA.gov is the U.S. government's official web portal to all federal, state and local government web resources and services.